Date,TemperatureHighF,TemperatureAvgF,TemperatureLowF,DewpointHighF,DewpointAvgF,DewpointLowF,HumidityHigh,HumidityAvg,HumidityLow,PressureMaxIn,PressureMinIn,WindSpeedMaxMPH,WindSpeedAvgMPH,GustSpeedMaxMPH,PrecipitationSumIn
2013-7-1,57.2,55.8,55.2,55.1,54.5,54.1,97,96,93,29.71,29.68,17,5,17,0.00
2013-7-2,62.2,57.6,54.9,58.8,56.0,54.0,98,95,87,29.78,29.68,19,5,22,0.00
2013-7-3,66.2,59.3,56.2,61.1,57.3,55.6,99,93,79,29.78,29.63,15,4,16,0.00
2013-7-4,64.5,60.7,56.6,60.1,56.6,52.3,98,87,74,29.65,29.54,23,6,24,0.00
2013-7-5,56.5,54.9,53.6,52.7,52.3,51.8,94,91,87,29.62,29.57,16,6,20,0.00
2013-7-6,58.9,55.7,53.3,54.2,52.8,51.4,94,90,84,29.68,29.61,23,7,24,0.00
2013-7-7,60.6,56.6,54.3,55.5,53.6,52.3,94,90,82,29.72,29.64,18,6,20,0.00
2013-7-8,59.9,56.5,53.4,55.5,53.7,52.3,97,91,84,29.85,29.72,17,5,19,0.00
2013-7-9,59.4,54.6,51.6,58.1,53.2,51.0,98,95,85,29.90,29.84,13,3,15,0.00
2013-7-10,58.9,56.0,52.9,55.5,53.6,51.7,97,92,87,29.85,29.78,19,6,23,0.00
2013-7-11,57.1,53.9,51.5,53.4,52.0,50.6,97,94,87,29.82,29.76,17,5,20,0.00
2013-7-12,57.3,54.9,53.1,54.0,52.4,51.3,95,92,87,29.82,29.76,18,6,20,0.00
2013-7-13,59.7,55.9,53.8,55.1,53.1,52.0,95,91,83,29.84,29.76,19,7,21,0.00
2013-7-14,57.2,54.5,52.1,53.6,52.4,51.2,97,93,88,29.84,29.78,16,5,18,0.00
2013-7-15,58.6,54.4,50.7,55.3,52.7,50.1,98,94,87,29.79,29.71,17,5,18,0.00
2013-7-16,61.0,56.8,53.3,57.0,54.6,51.6,97,93,82,29.88,29.72,15,4,16,0.01
2013-7-17,61.8,58.1,56.1,56.8,55.4,53.6,97,91,83,29.96,29.88,16,4,17,0.00
2013-7-18,54.1,53.9,53.8,53.1,52.9,52.7,97,96,96,29.82,29.81,12,4,13,0.00
2013-7-19,57.9,54.6,53.0,55.3,53.0,51.9,97,95,90,29.81,29.71,21,6,23,0.00
2013-7-20,56.8,53.4,51.7,54.4,52.0,50.8,98,95,89,29.72,29.62,20,6,22,0.00
2013-7-21,56.7,54.0,52.3,54.3,52.6,51.4,98,95,90,29.75,29.63,19,6,19,0.00
2013-7-22,55.2,54.5,53.6,54.6,53.9,52.7,100,98,97,29.76,29.74,11,4,12,0.00
2013-7-23,62.2,58.1,55.1,59.6,56.2,54.5,98,94,84,29.87,29.79,15,4,15,0.00
2013-7-24,60.7,56.3,53.7,57.2,55.0,52.8,99,96,87,29.86,29.78,16,4,16,0.00
2013-7-25,58.2,54.5,52.3,55.3,53.3,51.7,99,96,90,29.89,29.79,18,5,18,0.00
2013-7-26,59.5,55.0,52.8,56.7,54.0,52.2,99,97,90,29.96,29.87,19,4,19,0.00
2013-7-27,57.9,56.3,54.5,55.9,54.7,53.6,97,95,92,29.82,29.73,16,6,18,0.00
2013-7-28,57.3,54.9,53.5,54.9,53.5,52.2,100,95,90,29.74,29.68,20,6,20,0.01
2013-7-29,59.4,56.5,54.4,56.1,54.1,52.6,94,92,87,29.87,29.70,22,7,25,0.00
2013-7-30,59.1,56.0,53.0,55.3,53.7,51.5,96,92,87,29.96,29.87,17,5,20,0.00
2013-7-31,54.2,53.5,52.4,53.2,52.5,51.1,97,97,96,29.94,29.90,15,5,17,0.00